Other Surface Observations
Issued by NWS Upton, NY

Home | Current Version | Previous Version | Text Only | Print | Product List | Glossary On
Versions: 1 2 3 4 5 6 7 8 9 10 11 12 13 14 15 16 17 18 19 20 21 22 23 24 25 26 27 28 29 30 31 32 33 34 35 36 37 38 39 40 41 42 43 44 45 46 47 48 49 50
540
SXUS51 KOKX 221757
OSOOKX
New York City Metropolitan Area Weather Roundup
National Weather Service New York NY
100 PM EST MON JAN 22 2018

CITY           SKY/WX    TMP DP  RH WIND       PRES   REMARKS
Central Park   FAIR      46  39  76 E6        30.18F HAZE
LaGuardia Arpt CLOUDY    43  38  82 NE8       30.16F
Kennedy Intl   CLOUDY    51  41  68 SE3       30.17F
Newark Liberty CLOUDY    50  40  68 NE5       30.15F
Teterboro Arpt CLOUDY    48  39  71 E5        30.15F FOG
Bronx Bot Gard   N/A     43  37  81 NE9       30.18F
Bronx Lehman C   N/A     45  37  76 E6          N/A
Queens College   N/A     46  39  76 N3          N/A
Breezy Point     N/A     46 N/A N/A E5          N/A
Brooklyn Coll    N/A     50  37  62 NE3         N/A
Staten Island    N/A     50  39  66 N3          N/A

>>>>>>>>>>>>>>>>>>>>>>>>>>>>>>>>> KEY <<<<<<<<<<<<<<<<<<<<<<<<<<<<<<<
> SKY/WX - Sky Condition/Present    : R : WCI - Wind Chill Index    <
>          Weather                  : E : VSB - Visibility in Miles <
> TMP    - Temperature in Deg F     : M : HX  - Heat Index          <
> DP     - Dew Point Temperature    : A : TC  - Temperature in      <
> RH     - Relative Humidity        : R :       Celsius             <
> WIND   - Direction/Speed (mph)    : K : VRB - Variable Wind Dir   <
> PRES   - Pressure (in Hg)         : S :                           <
>>>>>>>>>>>>>>>>>>>>>>>>>>>>>>>>> KEY <<<<<<<<<<<<<<<<<<<<<<<<<<<<<<<




USA.gov is the U.S. government's official web portal to all federal, state and local government web resources and services.